This is the latest recevied weather packets stored in our database for station/object KG5CK-1. If no packets are shown the sender has not sent any weather packets the latest 10 day(s).
| Time | Temp. | Humidity | Pressure | Rain* | Wind** | Luminosity | Snow |
|---|---|---|---|---|---|---|---|
| 1788622562 | 32.78° C | 61% | 1011 hPa | 0 mm | 0.45 m/s, 67° | - | - |
| 1788622502 | 32.78° C | 63% | 1010.7 hPa | 0 mm | 0.45 m/s, 96° | - | - |
| 1788622443 | 32.78° C | 63% | 1010.7 hPa | 0 mm | 0.45 m/s, 96° | - | - |
| 1788622383 | 32.78° C | 63% | 1010.7 hPa | 0 mm | 0.45 m/s, 96° | - | - |
| 1788622322 | 32.78° C | 63% | 1010.7 hPa | 0 mm | 0.45 m/s, 96° | - | - |
| 1788622263 | 32.78° C | 63% | 1010.7 hPa | 0 mm | 0.45 m/s, 96° | - | - |
| 1788622203 | 32.22° C | 64% | 1010.8 hPa | 0 mm | 0.45 m/s, 106° | - | - |
| 1788622143 | 32.22° C | 64% | 1010.8 hPa | 0 mm | 0.45 m/s, 106° | - | - |
| 1788622082 | 32.22° C | 64% | 1010.8 hPa | 0 mm | 0.45 m/s, 106° | - | - |
| 1788622023 | 32.22° C | 64% | 1010.8 hPa | 0 mm | 0.45 m/s, 106° | - | - |
| 1788621963 | 32.22° C | 64% | 1010.8 hPa | 0 mm | 0.45 m/s, 106° | - | - |
| 1788621903 | 32.22° C | 66% | 1010.9 hPa | 0 mm | 0.45 m/s, 53° | - | - |
| 1788621842 | 32.22° C | 66% | 1010.9 hPa | 0 mm | 0.45 m/s, 53° | - | - |
| 1788621782 | 32.22° C | 66% | 1010.9 hPa | 0 mm | 0.45 m/s, 53° | - | - |
| 1788621722 | 32.22° C | 66% | 1010.9 hPa | 0 mm | 0.45 m/s, 53° | - | - |
| 1788621662 | 32.22° C | 66% | 1010.9 hPa | 0 mm | 0.45 m/s, 53° | - | - |
| 1788621602 | 32.22° C | 66% | 1010.9 hPa | 0 mm | 0.45 m/s, 53° | - | - |
| 1788621543 | 31.67° C | 64% | 1010.7 hPa | 0 mm | 2.24 m/s, 289° | - | - |
| 1788621483 | 31.67° C | 64% | 1010.7 hPa | 0 mm | 2.24 m/s, 289° | - | - |
| 1788621423 | 31.67° C | 64% | 1010.7 hPa | 0 mm | 2.24 m/s, 289° | - | - |
| 1788621363 | 31.67° C | 64% | 1010.7 hPa | 0 mm | 2.24 m/s, 289° | - | - |
| 1788621303 | 32.22° C | 65% | 1010.9 hPa | 0 mm | 0.89 m/s, 95° | - | - |
| 1788621243 | 32.22° C | 65% | 1010.9 hPa | 0 mm | 0.89 m/s, 95° | - | - |
| 1788621183 | 32.22° C | 65% | 1010.9 hPa | 0 mm | 0.89 m/s, 95° | - | - |
| 1788621123 | 32.22° C | 65% | 1010.9 hPa | 0 mm | 0.89 m/s, 95° | - | - |
* Rain latest hour (hover to see other rain measurements)
** Current wind speed in m/s (hover to see current wind gust speed)